Time,TemperatureF,DewpointF,PressureIn,WindDirection,WindDirectionDegrees,WindSpeedMPH,WindSpeedGustMPH,Humidity,HourlyPrecipIn,Conditions,Clouds,dailyrainin,SoftwareType,DateUTC
2013-03-19 07:10:00,52.8,44.7,30.01,East,86,4.0,4.0,74,0.00,,,0.00,Wunderground v.1.15,2013-03-19 12:10:00,
2013-03-19 07:15:00,52.6,44.9,30.01,ENE,77,4.0,4.0,75,0.00,,,0.00,Wunderground v.1.15,2013-03-19 12:15:00,
2013-03-19 07:20:00,52.6,44.9,30.01,East,96,4.0,4.0,75,0.00,,,0.00,Wunderground v.1.15,2013-03-19 12:20:00,
2013-03-19 07:25:00,52.5,44.8,30.01,East,92,3.0,4.0,75,0.00,,,0.00,Wunderground v.1.15,2013-03-19 12:25:00,
2013-03-19 07:30:00,52.4,44.7,30.01,ESE,120,3.0,4.0,75,0.00,,,0.00,Wunderground v.1.15,2013-03-19 12:30:00,
2013-03-19 07:40:00,52.7,45.0,30.00,ESE,115,3.0,3.0,75,0.00,,,0.00,Wunderground v.1.15,2013-03-19 12:40:00,
2013-03-19 07:45:00,52.9,45.2,30.01,ENE,70,3.0,3.0,75,0.00,,,0.00,Wunderground v.1.15,2013-03-19 12:45:00,
2013-03-19 07:50:00,53.2,45.5,30.01,ENE,77,3.0,3.0,75,0.00,,,0.00,Wunderground v.1.15,2013-03-19 12:50:00,
2013-03-19 07:55:00,53.6,45.5,30.01,ENE,78,3.0,3.0,74,0.00,,,0.00,Wunderground v.1.15,2013-03-19 12:55:00,
2013-03-19 08:00:00,53.8,45.7,30.01,ESE,112,3.0,3.0,74,0.00,,,0.00,Wunderground v.1.15,2013-03-19 13:00:00,
2013-03-19 08:05:00,54.0,45.5,30.01,East,89,4.0,4.0,73,0.00,,,0.00,Wunderground v.1.15,2013-03-19 13:05:00,
2013-03-19 08:15:00,54.6,46.1,30.02,East,98,4.0,10.0,73,0.00,,,0.00,Wunderground v.1.15,2013-03-19 13:15:00,
2013-03-19 08:20:00,54.8,45.6,30.02,East,91,4.0,10.0,71,0.00,,,0.00,Wunderground v.1.15,2013-03-19 13:20:00,
2013-03-19 08:25:00,55.1,45.5,30.03,ESE,120,5.0,10.0,70,0.00,,,0.00,Wunderground v.1.15,2013-03-19 13:25:00,
2013-03-19 08:30:00,55.3,45.7,30.02,ENE,77,6.0,6.0,70,0.00,,,0.00,Wunderground v.1.15,2013-03-19 13:30:00,
2013-03-19 08:35:00,55.6,45.6,30.02,ENE,74,6.0,10.0,69,0.00,,,0.00,Wunderground v.1.15,2013-03-19 13:35:00,
2013-03-19 08:40:00,55.9,45.5,30.02,NE,44,6.0,10.0,68,0.00,,,0.00,Wunderground v.1.15,2013-03-19 13:40:00,
2013-03-19 08:45:00,56.2,45.4,30.02,ENE,68,6.0,10.0,67,0.00,,,0.00,Wunderground v.1.15,2013-03-19 13:45:00,
2013-03-19 08:50:00,56.5,45.7,30.02,ESE,107,5.0,5.0,67,0.00,,,0.00,Wunderground v.1.15,2013-03-19 13:50:00,
2013-03-19 09:00:00,57.1,45.4,30.01,East,86,6.0,10.0,65,0.00,,,0.00,Wunderground v.1.15,2013-03-19 14:00:00,
2013-03-19 09:05:00,57.3,44.8,30.01,ESE,105,7.0,10.0,63,0.00,,,0.00,Wunderground v.1.15,2013-03-19 14:05:00,
2013-03-19 09:10:00,57.7,44.3,30.01,ESE,120,8.0,10.0,61,0.00,,,0.00,Wunderground v.1.15,2013-03-19 14:10:00,
2013-03-19 09:15:00,58.1,44.3,30.02,East,89,8.0,10.0,60,0.00,,,0.00,Wunderground v.1.15,2013-03-19 14:15:00,
2013-03-19 09:20:00,58.3,44.0,30.02,East,82,7.0,10.0,59,0.00,,,0.00,Wunderground v.1.15,2013-03-19 14:20:00,
2013-03-19 09:30:00,58.7,44.0,30.02,East,92,8.0,10.0,58,0.00,,,0.00,Wunderground v.1.15,2013-03-19 14:30:00,
2013-03-19 09:35:00,59.0,44.2,30.02,SE,125,8.0,10.0,58,0.00,,,0.00,Wunderground v.1.15,2013-03-19 14:35:00,
2013-03-19 09:40:00,59.5,43.3,30.02,East,97,7.0,10.0,55,0.00,,,0.00,Wunderground v.1.15,2013-03-19 14:40:00,
2013-03-19 09:45:00,59.6,43.4,30.02,ESE,108,8.0,10.0,55,0.00,,,0.00,Wunderground v.1.15,2013-03-19 14:45:00,
2013-03-19 09:55:00,60.1,43.4,30.01,East,80,8.0,10.0,54,0.00,,,0.00,Wunderground v.1.15,2013-03-19 14:55:00,
2013-03-19 10:00:00,60.4,43.2,30.01,SE,127,9.0,11.0,53,0.00,,,0.00,Wunderground v.1.15,2013-03-19 15:00:00,
2013-03-19 10:05:00,60.7,43.0,30.01,ESE,106,9.0,11.0,52,0.00,,,0.00,Wunderground v.1.15,2013-03-19 15:05:00,
2013-03-19 10:10:00,61.1,42.8,30.01,NE,56,9.0,9.0,51,0.00,,,0.00,Wunderground v.1.15,2013-03-19 15:10:00,
2013-03-19 10:15:00,61.4,42.6,30.01,ENE,72,8.0,13.0,50,0.00,,,0.00,Wunderground v.1.15,2013-03-19 15:15:00,
2013-03-19 10:25:00,63.0,43.5,30.01,South,183,7.0,10.0,49,0.00,,,0.00,Wunderground v.1.15,2013-03-19 15:25:00,
2013-03-19 10:30:00,62.9,42.4,30.02,East,96,6.0,10.0,47,0.00,,,0.00,Wunderground v.1.15,2013-03-19 15:30:00,
2013-03-19 10:35:00,63.2,42.6,30.02,East,79,7.0,10.0,47,0.00,,,0.00,Wunderground v.1.15,2013-03-19 15:35:00,
2013-03-19 10:40:00,63.4,42.8,30.02,East,91,8.0,10.0,47,0.00,,,0.00,Wunderground v.1.15,2013-03-19 15:40:00,
2013-03-19 10:45:00,63.9,44.4,30.01,SE,143,7.0,10.0,49,0.00,,,0.00,Wunderground v.1.15,2013-03-19 15:45:00,
2013-03-19 10:55:00,65.2,44.5,30.01,ESE,122,8.0,10.0,47,0.00,,,0.00,Wunderground v.1.15,2013-03-19 15:55:00,
2013-03-19 11:00:00,65.5,42.4,30.01,ESE,105,8.0,11.0,43,0.00,,,0.00,Wunderground v.1.15,2013-03-19 16:00:00,
2013-03-19 11:05:00,65.4,42.9,30.02,East,98,8.0,11.0,44,0.00,,,0.00,Wunderground v.1.15,2013-03-19 16:05:00,
2013-03-19 11:10:00,65.9,43.4,30.02,East,101,8.0,10.0,44,0.00,,,0.00,Wunderground v.1.15,2013-03-19 16:10:00,
2013-03-19 11:15:00,65.8,43.3,30.02,ESE,114,8.0,10.0,44,0.00,,,0.00,Wunderground v.1.15,2013-03-19 16:15:00,
2013-03-19 11:20:00,66.2,42.4,30.02,East,94,7.0,10.0,42,0.00,,,0.00,Wunderground v.1.15,2013-03-19 16:20:00,
2013-03-19 11:25:00,66.9,43.0,30.02,East,91,6.0,10.0,42,0.00,,,0.00,Wunderground v.1.15,2013-03-19 16:25:00,
2013-03-19 11:30:00,67.3,44.0,30.02,East,88,6.0,10.0,43,0.00,,,0.00,Wunderground v.1.15,2013-03-19 16:30:00,
2013-03-19 11:35:00,67.4,43.5,30.02,ENE,60,5.0,10.0,42,0.00,,,0.00,Wunderground v.1.15,2013-03-19 16:35:00,
2013-03-19 11:45:00,67.8,41.9,30.02,East,89,6.0,10.0,39,0.00,,,0.00,Wunderground v.1.15,2013-03-19 16:45:00,
2013-03-19 11:50:00,68.1,44.7,30.02,East,97,6.0,6.0,43,0.00,,,0.00,Wunderground v.1.15,2013-03-19 16:50:00,
2013-03-19 11:55:00,68.4,42.5,30.02,NE,35,6.0,10.0,39,0.00,,,0.00,Wunderground v.1.15,2013-03-19 16:55:00,
2013-03-19 12:00:00,68.8,44.8,30.02,ENE,75,6.0,6.0,42,0.00,,,0.00,Wunderground v.1.15,2013-03-19 17:00:00,
2013-03-19 12:05:00,69.2,43.8,30.02,ENE,63,5.0,10.0,40,0.00,,,0.00,Wunderground v.1.15,2013-03-19 17:05:00,
2013-03-19 12:10:00,69.6,44.8,30.02,ENE,73,5.0,5.0,41,0.00,,,0.00,Wunderground v.1.15,2013-03-19 17:10:00,
2013-03-19 12:15:00,69.8,43.7,30.02,NE,39,5.0,6.0,39,0.00,,,0.00,Wunderground v.1.15,2013-03-19 17:15:00,
2013-03-19 12:20:00,69.7,42.9,30.02,North,2,6.0,10.0,38,0.00,,,0.00,Wunderground v.1.15,2013-03-19 17:20:00,
2013-03-19 12:30:00,70.0,43.2,30.02,East,88,7.0,10.0,38,0.00,,,0.00,Wunderground v.1.15,2013-03-19 17:30:00,
2013-03-19 12:35:00,70.3,44.2,30.02,ENE,69,5.0,10.0,39,0.00,,,0.00,Wunderground v.1.15,2013-03-19 17:35:00,
2013-03-19 12:40:00,70.6,45.1,30.02,East,97,5.0,10.0,40,0.00,,,0.00,Wunderground v.1.15,2013-03-19 17:40:00,
2013-03-19 12:45:00,70.7,43.8,30.02,NNE,30,5.0,10.0,38,0.00,,,0.00,Wunderground v.1.15,2013-03-19 17:45:00,
2013-03-19 12:50:00,70.9,44.0,30.02,ENE,77,5.0,10.0,38,0.00,,,0.00,Wunderground v.1.15,2013-03-19 17:50:00,
2013-03-19 12:55:00,71.4,45.1,30.01,NNE,13,6.0,10.0,39,0.00,,,0.00,Wunderground v.1.15,2013-03-19 17:55:00,
2013-03-19 13:05:00,71.9,44.9,30.01,NE,51,5.0,10.0,38,0.00,,,0.00,Wunderground v.1.15,2013-03-19 18:05:00,
2013-03-19 13:10:00,71.8,44.1,30.01,ENE,67,5.0,5.0,37,0.00,,,0.00,Wunderground v.1.15,2013-03-19 18:10:00,
2013-03-19 13:15:00,71.9,44.9,30.00,NE,36,4.0,10.0,38,0.00,,,0.00,Wunderground v.1.15,2013-03-19 18:15:00,
2013-03-19 13:20:00,72.2,45.9,30.00,ENE,64,4.0,10.0,39,0.00,,,0.00,Wunderground v.1.15,2013-03-19 18:20:00,
2013-03-19 13:25:00,71.9,45.6,30.01,ENE,68,6.0,10.0,39,0.00,,,0.00,Wunderground v.1.15,2013-03-19 18:25:00,
2013-03-19 13:35:00,71.8,44.8,30.00,NE,45,5.0,10.0,38,0.00,,,0.00,Wunderground v.1.15,2013-03-19 18:35:00,
2013-03-19 13:40:00,72.2,44.5,30.00,ENE,71,4.0,10.0,37,0.00,,,0.00,Wunderground v.1.15,2013-03-19 18:40:00,
2013-03-19 13:45:00,72.4,45.4,30.00,NNE,32,3.0,10.0,38,0.00,,,0.00,Wunderground v.1.15,2013-03-19 18:45:00,
2013-03-19 13:50:00,72.8,47.1,30.00,East,85,4.0,10.0,40,0.00,,,0.00,Wunderground v.1.15,2013-03-19 18:50:00,
2013-03-19 13:55:00,72.9,45.1,30.00,ENE,60,5.0,10.0,37,0.00,,,0.00,Wunderground v.1.15,2013-03-19 18:55:00,
2013-03-19 14:00:00,72.8,45.7,29.99,NNW,342,5.0,10.0,38,0.00,,,0.00,Wunderground v.1.15,2013-03-19 19:00:00,
2013-03-19 14:10:00,73.6,46.4,29.99,ENE,64,5.0,10.0,38,0.00,,,0.00,Wunderground v.1.15,2013-03-19 19:10:00,
2013-03-19 14:15:00,73.4,45.5,29.99,East,92,5.0,10.0,37,0.00,,,0.00,Wunderground v.1.15,2013-03-19 19:15:00,
2013-03-19 14:20:00,73.9,46.7,29.99,NE,48,4.0,10.0,38,0.00,,,0.00,Wunderground v.1.15,2013-03-19 19:20:00,
2013-03-19 14:25:00,74.3,45.6,29.99,North,4,4.0,10.0,36,0.00,,,0.00,Wunderground v.1.15,2013-03-19 19:25:00,
2013-03-19 14:30:00,74.3,45.6,29.99,NNW,346,4.0,10.0,36,0.00,,,0.00,Wunderground v.1.15,2013-03-19 19:30:00,
2013-03-19 14:40:00,73.9,45.3,29.98,NNE,26,5.0,10.0,36,0.00,,,0.00,Wunderground v.1.15,2013-03-19 19:40:00,
2013-03-19 14:45:00,73.6,45.7,29.98,NE,37,6.0,10.0,37,0.00,,,0.00,Wunderground v.1.15,2013-03-19 19:45:00,
2013-03-19 14:50:00,74.3,47.0,29.98,NNE,32,6.0,6.0,38,0.00,,,0.00,Wunderground v.1.15,2013-03-19 19:50:00,
2013-03-19 14:55:00,74.8,47.5,29.98,NE,56,5.0,7.0,38,0.00,,,0.00,Wunderground v.1.15,2013-03-19 19:55:00,
2013-03-19 15:00:00,74.7,46.0,29.97,NNE,27,6.0,6.0,36,0.00,,,0.00,Wunderground v.1.15,2013-03-19 20:00:00,
2013-03-19 15:05:00,74.7,46.0,29.97,NNE,25,6.0,7.0,36,0.00,,,0.00,Wunderground v.1.15,2013-03-19 20:05:00,
2013-03-19 15:15:00,74.6,45.9,29.97,NNE,25,6.0,10.0,36,0.00,,,0.00,Wunderground v.1.15,2013-03-19 20:15:00,
2013-03-19 15:20:00,74.8,46.1,29.97,NNE,26,5.0,5.0,36,0.00,,,0.00,Wunderground v.1.15,2013-03-19 20:20:00,
2013-03-19 15:25:00,74.8,46.8,29.96,NE,36,5.0,10.0,37,0.00,,,0.00,Wunderground v.1.15,2013-03-19 20:25:00,
2013-03-19 15:30:00,74.2,45.5,29.96,North,11,5.0,5.0,36,0.00,,,0.00,Wunderground v.1.15,2013-03-19 20:30:00,
2013-03-19 15:35:00,74.5,46.5,29.96,ENE,67,4.0,10.0,37,0.00,,,0.00,Wunderground v.1.15,2013-03-19 20:35:00,
2013-03-19 15:40:00,74.9,46.1,29.96,North,351,4.0,4.0,36,0.00,,,0.00,Wunderground v.1.15,2013-03-19 20:40:00,
2013-03-19 15:45:00,75.1,47.0,29.96,South,172,5.0,5.0,37,0.00,,,0.00,Wunderground v.1.15,2013-03-19 20:45:00,
2013-03-19 15:50:00,75.5,46.7,29.96,NNE,23,4.0,10.0,36,0.00,,,0.00,Wunderground v.1.15,2013-03-19 20:50:00,
2013-03-19 15:55:00,75.5,46.7,29.96,NE,39,4.0,10.0,36,0.00,,,0.00,Wunderground v.1.15,2013-03-19 20:55:00,
2013-03-19 16:00:00,75.6,47.5,29.95,North,2,5.0,5.0,37,0.00,,,0.00,Wunderground v.1.15,2013-03-19 21:00:00,
2013-03-19 16:05:00,75.4,48.0,29.95,ESE,105,5.0,6.0,38,0.00,,,0.00,Wunderground v.1.15,2013-03-19 21:05:00,
2013-03-19 16:15:00,76.1,47.2,29.94,North,4,4.0,10.0,36,0.00,,,0.00,Wunderground v.1.15,2013-03-19 21:15:00,
2013-03-19 16:20:00,75.9,47.8,29.94,North,352,4.0,10.0,37,0.00,,,0.00,Wunderground v.1.15,2013-03-19 21:20:00,
2013-03-19 16:25:00,75.9,47.0,29.94,ENE,77,4.0,10.0,36,0.00,,,0.00,Wunderground v.1.15,2013-03-19 21:25:00,
2013-03-19 16:30:00,75.7,46.8,29.94,ENE,60,5.0,10.0,36,0.00,,,0.00,Wunderground v.1.15,2013-03-19 21:30:00,
2013-03-19 16:35:00,76.2,48.7,29.93,ENE,66,4.0,10.0,38,0.00,,,0.00,Wunderground v.1.15,2013-03-19 21:35:00,
2013-03-19 16:40:00,76.3,47.4,29.93,East,85,3.0,3.0,36,0.00,,,0.00,Wunderground v.1.15,2013-03-19 21:40:00,
2013-03-19 16:50:00,75.7,49.0,29.93,East,101,6.0,6.0,39,0.00,,,0.00,Wunderground v.1.15,2013-03-19 21:50:00,
2013-03-19 16:55:00,75.9,49.2,29.93,East,96,5.0,10.0,39,0.00,,,0.00,Wunderground v.1.15,2013-03-19 21:55:00,
2013-03-19 17:00:00,75.9,47.8,29.93,ENE,63,3.0,10.0,37,0.00,,,0.00,Wunderground v.1.15,2013-03-19 22:00:00,
2013-03-19 17:05:00,76.2,48.7,29.94,East,81,3.0,10.0,38,0.00,,,0.00,Wunderground v.1.15,2013-03-19 22:05:00,
2013-03-19 17:10:00,76.0,47.1,29.94,NE,55,4.0,4.0,36,0.00,,,0.00,Wunderground v.1.15,2013-03-19 22:10:00,
2013-03-19 17:20:00,76.4,48.2,29.94,ESE,105,3.0,10.0,37,0.00,,,0.00,Wunderground v.1.15,2013-03-19 22:20:00,
2013-03-19 17:25:00,75.9,50.5,29.94,SE,146,3.0,10.0,41,0.00,,,0.00,Wunderground v.1.15,2013-03-19 22:25:00,
2013-03-19 17:30:00,75.4,48.0,29.93,ENE,61,4.0,4.0,38,0.00,,,0.00,Wunderground v.1.15,2013-03-19 22:30:00,
2013-03-19 17:35:00,75.6,47.5,29.94,NNE,31,4.0,10.0,37,0.00,,,0.00,Wunderground v.1.15,2013-03-19 22:35:00,
2013-03-19 17:40:00,75.8,48.4,29.93,ENE,75,4.0,4.0,38,0.00,,,0.00,Wunderground v.1.15,2013-03-19 22:40:00,
2013-03-19 17:45:00,75.8,48.4,29.93,East,94,4.0,10.0,38,0.00,,,0.00,Wunderground v.1.15,2013-03-19 22:45:00,
2013-03-19 17:55:00,75.5,49.5,29.93,NNE,30,2.0,10.0,40,0.00,,,0.00,Wunderground v.1.15,2013-03-19 22:55:00,
2013-03-19 18:00:00,75.3,48.6,29.94,NNW,343,3.0,3.0,39,0.00,,,0.00,Wunderground v.1.15,2013-03-19 23:00:00,
2013-03-19 18:05:00,75.4,48.7,29.94,NE,37,3.0,10.0,39,0.00,,,0.00,Wunderground v.1.15,2013-03-19 23:05:00,
2013-03-19 18:10:00,75.7,49.0,29.94,NE,44,2.0,10.0,39,0.00,,,0.00,Wunderground v.1.15,2013-03-19 23:10:00,
2013-03-19 18:15:00,75.7,49.7,29.93,NE,54,2.0,10.0,40,0.00,,,0.00,Wunderground v.1.15,2013-03-19 23:15:00,
2013-03-19 18:25:00,75.3,49.3,29.94,ENE,72,2.0,10.0,40,0.00,,,0.00,Wunderground v.1.15,2013-03-19 23:25:00,
2013-03-19 18:30:00,75.3,47.9,29.94,NE,35,3.0,10.0,38,0.00,,,0.00,Wunderground v.1.15,2013-03-19 23:30:00,
2013-03-19 18:35:00,75.1,48.4,29.94,ENE,75,3.0,10.0,39,0.00,,,0.00,Wunderground v.1.15,2013-03-19 23:35:00,
2013-03-19 18:40:00,74.9,48.9,29.94,East,88,2.0,2.0,40,0.00,,,0.00,Wunderground v.1.15,2013-03-19 23:40:00,
2013-03-19 18:45:00,74.8,49.5,29.94,East,79,2.0,10.0,41,0.00,,,0.00,Wunderground v.1.15,2013-03-19 23:45:00,
2013-03-19 18:50:00,74.6,48.7,29.94,ENE,68,2.0,2.0,40,0.00,,,0.00,Wunderground v.1.15,2013-03-19 23:50:00,
2013-03-19 19:00:00,73.8,49.9,29.95,North,359,2.0,10.0,43,0.00,,,0.00,Wunderground v.1.15,2013-03-20 00:00:00,
2013-03-19 19:05:00,73.4,49.5,29.95,NNE,13,2.0,10.0,43,0.00,,,0.00,Wunderground v.1.15,2013-03-20 00:05:00,
2013-03-19 19:10:00,73.2,49.4,29.95,NNE,27,2.0,10.0,43,0.00,,,0.00,Wunderground v.1.15,2013-03-20 00:10:00,
2013-03-19 19:15:00,73.0,49.8,29.95,NNE,12,2.0,10.0,44,0.00,,,0.00,Wunderground v.1.15,2013-03-20 00:15:00,
2013-03-19 19:20:00,72.7,49.5,29.95,NNE,21,2.0,10.0,44,0.00,,,0.00,Wunderground v.1.15,2013-03-20 00:20:00,
2013-03-19 19:30:00,71.6,50.3,29.95,North,4,2.0,10.0,47,0.00,,,0.00,Wunderground v.1.15,2013-03-20 00:30:00,
2013-03-19 19:35:00,71.2,49.9,29.95,North,357,2.0,10.0,47,0.00,,,0.00,Wunderground v.1.15,2013-03-20 00:35:00,
2013-03-19 19:40:00,71.0,49.7,29.95,NNE,25,2.0,10.0,47,0.00,,,0.00,Wunderground v.1.15,2013-03-20 00:40:00,
2013-03-19 19:45:00,70.8,50.1,29.95,NNW,347,2.0,10.0,48,0.00,,,0.00,Wunderground v.1.15,2013-03-20 00:45:00,
2013-03-19 19:50:00,70.3,50.2,29.95,North,8,2.0,10.0,49,0.00,,,0.00,Wunderground v.1.15,2013-03-20 00:50:00,
2013-03-19 19:55:00,70.0,50.0,29.95,North,1,2.0,10.0,49,0.00,,,0.00,Wunderground v.1.15,2013-03-20 00:55:00,
2013-03-19 20:05:00,69.7,50.2,29.95,NNE,25,2.0,10.0,50,0.00,,,0.00,Wunderground v.1.15,2013-03-20 01:05:00,
2013-03-19 20:10:00,69.5,50.0,29.96,North,6,2.0,10.0,50,0.00,,,0.00,Wunderground v.1.15,2013-03-20 01:10:00,
2013-03-19 20:15:00,69.2,50.3,29.96,North,3,3.0,10.0,51,0.00,,,0.00,Wunderground v.1.15,2013-03-20 01:15:00,
2013-03-19 20:20:00,68.8,49.4,29.96,North,5,3.0,10.0,50,0.00,,,0.00,Wunderground v.1.15,2013-03-20 01:20:00,
2013-03-19 20:25:00,68.8,49.4,29.96,NNE,20,3.0,10.0,50,0.00,,,0.00,Wunderground v.1.15,2013-03-20 01:25:00,
2013-03-19 20:30:00,68.7,49.3,29.96,North,8,4.0,4.0,50,0.00,,,0.00,Wunderground v.1.15,2013-03-20 01:30:00,
2013-03-19 20:35:00,68.5,49.7,29.96,North,4,4.0,5.0,51,0.00,,,0.00,Wunderground v.1.15,2013-03-20 01:35:00,
2013-03-19 20:40:00,68.6,46.4,29.96,NNE,30,6.0,10.0,45,0.00,,,0.00,Wunderground v.1.15,2013-03-20 01:40:00,
2013-03-19 20:45:00,68.4,46.2,29.97,North,8,6.0,10.0,45,0.00,,,0.00,Wunderground v.1.15,2013-03-20 01:45:00,
2013-03-19 20:50:00,68.3,45.5,29.97,NNW,340,6.0,10.0,44,0.00,,,0.00,Wunderground v.1.15,2013-03-20 01:50:00,
2013-03-19 20:55:00,68.1,45.4,29.96,NNE,33,6.0,10.0,44,0.00,,,0.00,Wunderground v.1.15,2013-03-20 01:55:00,
2013-03-19 21:05:00,67.9,45.2,29.97,NE,44,7.0,10.0,44,0.00,,,0.00,Wunderground v.1.15,2013-03-20 02:05:00,
2013-03-19 21:10:00,67.5,44.8,29.97,North,7,6.0,10.0,44,0.00,,,0.00,Wunderground v.1.15,2013-03-20 02:10:00,
2013-03-19 21:15:00,67.3,44.6,29.97,NE,45,6.0,10.0,44,0.00,,,0.00,Wunderground v.1.15,2013-03-20 02:15:00,
2013-03-19 21:20:00,67.3,44.0,29.97,NNE,15,7.0,7.0,43,0.00,,,0.00,Wunderground v.1.15,2013-03-20 02:20:00,
2013-03-19 21:25:00,67.2,43.9,29.98,NNE,29,7.0,10.0,43,0.00,,,0.00,Wunderground v.1.15,2013-03-20 02:25:00,
2013-03-19 21:30:00,66.9,43.7,29.98,NE,37,6.0,10.0,43,0.00,,,0.00,Wunderground v.1.15,2013-03-20 02:30:00,
2013-03-19 21:40:00,66.5,43.3,29.98,NE,34,6.0,6.0,43,0.00,,,0.00,Wunderground v.1.15,2013-03-20 02:40:00,
2013-03-19 21:45:00,66.4,43.2,29.98,NNE,27,6.0,9.0,43,0.00,,,0.00,Wunderground v.1.15,2013-03-20 02:45:00,
2013-03-19 21:50:00,66.2,43.0,29.98,NNE,15,6.0,6.0,43,0.00,,,0.00,Wunderground v.1.15,2013-03-20 02:50:00,
2013-03-19 21:55:00,66.1,42.3,29.98,North,6,7.0,8.0,42,0.00,,,0.00,Wunderground v.1.15,2013-03-20 02:55:00,
2013-03-19 22:00:00,66.0,42.2,29.98,NNE,27,7.0,10.0,42,0.00,,,0.00,Wunderground v.1.15,2013-03-20 03:00:00,
2013-03-19 22:10:00,65.7,42.0,29.99,ENE,61,5.0,5.0,42,0.00,,,0.00,Wunderground v.1.15,2013-03-20 03:10:00,
2013-03-19 22:15:00,65.4,41.7,29.99,East,87,4.0,10.0,42,0.00,,,0.00,Wunderground v.1.15,2013-03-20 03:15:00,
2013-03-19 22:20:00,65.2,41.5,29.99,NE,48,3.0,10.0,42,0.00,,,0.00,Wunderground v.1.15,2013-03-20 03:20:00,
2013-03-19 22:25:00,65.0,41.9,29.99,ENE,61,3.0,10.0,43,0.00,,,0.00,Wunderground v.1.15,2013-03-20 03:25:00,
2013-03-19 22:30:00,64.8,41.8,30.00,NE,38,2.0,2.0,43,0.00,,,0.00,Wunderground v.1.15,2013-03-20 03:30:00,
2013-03-19 22:35:00,64.5,41.5,30.00,NE,53,2.0,10.0,43,0.00,,,0.00,Wunderground v.1.15,2013-03-20 03:35:00,
2013-03-19 22:45:00,64.1,41.7,30.00,East,89,2.0,10.0,44,0.00,,,0.00,Wunderground v.1.15,2013-03-20 03:45:00,
2013-03-19 22:50:00,63.9,41.5,30.00,East,86,1.0,10.0,44,0.00,,,0.00,Wunderground v.1.15,2013-03-20 03:50:00,
2013-03-19 22:55:00,63.5,45.6,30.00,SE,146,1.0,10.0,52,0.00,,,0.00,Wunderground v.1.15,2013-03-20 03:55:00,
2013-03-19 23:00:00,62.6,46.7,30.00,SE,146,1.0,10.0,56,0.00,,,0.00,Wunderground v.1.15,2013-03-20 04:00:00,
2013-03-19 23:05:00,62.2,42.8,30.00,East,101,1.0,10.0,49,0.00,,,0.00,Wunderground v.1.15,2013-03-20 04:05:00,
2013-03-19 23:10:00,62.4,41.9,30.00,ENE,57,1.0,10.0,47,0.00,,,0.00,Wunderground v.1.15,2013-03-20 04:10:00,
2013-03-19 23:15:00,62.6,42.1,30.00,North,9,1.0,10.0,47,0.00,,,0.00,Wunderground v.1.15,2013-03-20 04:15:00,
2013-03-19 23:20:00,62.7,42.2,30.00,ENE,62,1.0,1.0,47,0.00,,,0.00,Wunderground v.1.15,2013-03-20 04:20:00,
2013-03-19 23:25:00,62.9,41.8,30.00,ENE,60,1.0,4.0,46,0.00,,,0.00,Wunderground v.1.15,2013-03-20 04:25:00,
2013-03-19 23:30:00,62.8,41.7,30.00,NE,40,1.0,10.0,46,0.00,,,0.00,Wunderground v.1.15,2013-03-20 04:30:00,
2013-03-19 23:35:00,62.8,41.7,30.00,NE,39,2.0,10.0,46,0.00,,,0.00,Wunderground v.1.15,2013-03-20 04:35:00,
2013-03-19 23:40:00,62.6,41.5,30.00,ENE,63,2.0,10.0,46,0.00,,,0.00,Wunderground v.1.15,2013-03-20 04:40:00,
2013-03-19 23:50:00,62.6,42.1,30.00,NNE,28,3.0,3.0,47,0.00,,,0.00,Wunderground v.1.15,2013-03-20 04:50:00,
2013-03-19 23:55:00,62.6,42.1,30.00,NNE,26,4.0,6.0,47,0.00,,,0.00,Wunderground v.1.15,2013-03-20 04:55:00,